Location: Berlin
(42.3812°N, 71.6370°W)
Time: 12:42:17
(UTC+00:00)

Cosmos 1943 - Pass Details

Date: 21 February 2026
Orbit: 830 x 850 km, 71.0° (Epoch: 8 March)

Event Time Altitude Azimuth Distance (km) Brightness Sun altitude
Rises 00:43:05 0° 329° (NNW) 3,422 6.9 -26.1°
Reaches altitude 10° 00:45:38 10° 324° (NW) 2,481 6.2 -26.5°
Maximum altitude 00:51:01 45° 253° (WSW) 1,140 4.2 -27.5°
Enters shadow 00:54:50 18° 189° (S) 1,931 5.0 -28.2°
